| time (UTC) | temp F | wind direction | speed MPH | gust MPH | rain 1hr in | rain 24hr in | rain mn in | humidity % | barometer mb |
| 20260902111018 | 74 | 281 | 5.0 | 11.0 | 0.00 | 0.00 | 0.00 | 81 | 1018.2 |
| 20260902110521 | 74 | 269 | 5.0 | 12.0 | 0.00 | 0.00 | 0.00 | 81 | 1018.1 |
| 20260902110017 | 74 | 229 | 7.0 | 12.0 | 0.00 | 0.00 | 0.00 | 81 | 1018.0 |
| 20260902105519 | 73 | 305 | 4.0 | 9.0 | 0.00 | 0.00 | 0.00 | 81 | 1017.9 |
| 20260902105014 | 73 | 271 | 3.0 | 8.0 | 0.00 | 0.00 | 0.00 | 80 | 1017.9 |
| 20260902104519 | 73 | 292 | 3.0 | 9.0 | 0.00 | 0.00 | 0.00 | 81 | 1017.9 |
| 20260902104013 | 73 | 272 | 4.0 | 8.0 | 0.00 | 0.00 | 0.00 | 81 | 1017.8 |
| 20260902103511 | 73 | 255 | 2.0 | 7.0 | 0.00 | 0.00 | 0.00 | 81 | 1017.7 |
| 20260902103010 | 73 | 273 | 3.0 | 5.0 | 0.00 | 0.00 | 0.00 | 81 | 1017.7 |
| 20260902102508 | 73 | 308 | 3.0 | 7.0 | 0.00 | 0.00 | 0.00 | 81 | 1017.6 |
| 20260902102007 | 72 | 273 | 2.0 | 7.0 | 0.00 | 0.00 | 0.00 | 82 | 1017.7 |
| 20260902101507 | 72 | 238 | 1.0 | 7.0 | 0.00 | 0.00 | 0.00 | 83 | 1017.7 |
| 20260902101005 | 72 | 267 | 1.0 | 5.0 | 0.00 | 0.00 | 0.00 | 83 | 1017.7 |
| 20260902100503 | 72 | 271 | 3.0 | 6.0 | 0.00 | 0.00 | 0.00 | 83 | 1017.7 |
| 20260902100003 | 71 | 290 | 1.0 | 4.0 | 0.00 | 0.00 | 0.00 | 83 | 1017.7 |
| 20260902095501 | 71 | 290 | 1.0 | 4.0 | 0.00 | 0.00 | 0.00 | 83 | 1017.6 |
| 20260902095103 | 71 | 312 | 0.0 | 7.0 | 0.00 | 0.00 | 0.00 | 84 | 1017.6 |
| 20260902094600 | 71 | 290 | 3.0 | 7.0 | 0.00 | 0.00 | 0.00 | 84 | 1017.6 |
| 20260902094100 | 71 | 252 | 2.0 | 7.0 | 0.00 | 0.00 | 0.00 | 84 | 1017.6 |
| 20260902093600 | 71 | 281 | 3.0 | 7.0 | 0.00 | 0.00 | 0.00 | 84 | 1017.6 |
| 20260902093058 | 71 | 292 | 2.0 | 5.0 | 0.00 | 0.00 | 0.00 | 85 | 1017.6 |
| 20260902092558 | 70 | 294 | 3.0 | 6.0 | 0.00 | 0.00 | 0.00 | 85 | 1017.4 |
| 20260902092056 | 70 | 234 | 2.0 | 3.0 | 0.00 | 0.00 | 0.00 | 85 | 1017.4 |
| 20260902091610 | 70 | 234 | 1.0 | 5.0 | 0.00 | 0.00 | 0.00 | 86 | 1017.3 |
| 20260902091054 | 70 | 234 | 2.0 | 5.0 | 0.00 | 0.00 | 0.00 | 86 | 1017.3 |
| 20260902090553 | 70 | 234 | 1.0 | 5.0 | 0.00 | 0.00 | 0.00 | 86 | 1017.3 |
| 20260902090051 | 70 | 234 | 2.0 | 5.0 | 0.00 | 0.00 | 0.00 | 87 | 1017.3 |
| 20260902085549 | 69 | 249 | 2.0 | 3.0 | 0.00 | 0.00 | 0.00 | 86 | 1017.2 |
| 20260902085051 | 69 | 15 | 0.0 | 2.0 | 0.00 | 0.00 | 0.00 | 87 | 1017.2 |
| 20260902084550 | 69 | 15 | 0.0 | 3.0 | 0.00 | 0.00 | 0.00 | 86 | 1017.1 |
| 20260902084046 | 69 | 15 | 0.0 | 4.0 | 0.00 | 0.00 | 0.00 | 86 | 1017.0 |
| 20260902083543 | 70 | 15 | 2.0 | 4.0 | 0.00 | 0.00 | 0.00 | 85 | 1016.9 |
| 20260902083043 | 70 | 15 | 2.0 | 4.0 | 0.00 | 0.00 | 0.00 | 84 | 1016.9 |
| 20260902082540 | 70 | 15 | 0.0 | 0.0 | 0.00 | 0.00 | 0.00 | 85 | 1016.8 |
| 20260902082039 | 70 | 15 | 0.0 | 0.0 | 0.00 | 0.00 | 0.00 | 85 | 1016.9 |
| 20260902081543 | 69 | 15 | 0.0 | 0.0 | 0.00 | 0.00 | 0.00 | 85 | 1016.8 |
| 20260902081036 | 69 | 15 | 0.0 | 3.0 | 0.00 | 0.00 | 0.00 | 85 | 1016.8 |
| 20260902080535 | 68 | 15 | 1.0 | 3.0 | 0.00 | 0.00 | 0.00 | 85 | 1016.7 |
| 20260902080034 | 68 | 15 | 0.0 | 3.0 | 0.00 | 0.00 | 0.00 | 84 | 1016.8 |
| 20260902075533 | 68 | 346 | 1.0 | 3.0 | 0.00 | 0.00 | 0.00 | 84 | 1016.7 |
| 20260902075031 | 68 | 63 | 1.0 | 3.0 | 0.00 | 0.00 | 0.00 | 84 | 1016.6 |
| 20260902074529 | 67 | 63 | 2.0 | 4.0 | 0.00 | 0.00 | 0.00 | 83 | 1016.6 |
| 20260902074028 | 66 | 63 | 2.0 | 4.0 | 0.00 | 0.00 | 0.00 | 81 | 1016.5 |
| 20260902073528 | 66 | 63 | 1.0 | 5.0 | 0.00 | 0.00 | 0.00 | 82 | 1016.4 |
| 20260902073033 | 67 | 58 | 4.0 | 5.0 | 0.00 | 0.00 | 0.00 | 83 | 1016.4 |
| 20260902072527 | 66 | 38 | 2.0 | 4.0 | 0.00 | 0.00 | 0.00 | 82 | 1016.4 |
| 20260902072027 | 66 | 118 | 2.0 | 4.0 | 0.00 | 0.00 | 0.00 | 81 | 1016.4 |
| 20260902071524 | 67 | 68 | 1.0 | 4.0 | 0.00 | 0.00 | 0.00 | 81 | 1016.3 |
| 20260902071024 | 67 | 70 | 2.0 | 3.0 | 0.00 | 0.00 | 0.00 | 80 | 1016.4 |
| 20260902070525 | 66 | 70 | 2.0 | 4.0 | 0.00 | 0.00 | 0.00 | 80 | 1016.2 |
| 20260902070032 | 65 | 70 | 2.0 | 5.0 | 0.00 | 0.00 | 0.00 | 79 | 1016.2 |
| 20260902065522 | 65 | 71 | 3.0 | 5.0 | 0.00 | 0.00 | 0.00 | 80 | 1016.1 |
| 20260902065022 | 66 | 85 | 3.0 | 6.0 | 0.00 | 0.00 | 0.00 | 84 | 1016.0 |
| 20260902064535 | 66 | 85 | 0.0 | 4.0 | 0.00 | 0.00 | 0.00 | 85 | 1016.1 |
| 20260902064022 | 66 | 85 | 2.0 | 4.0 | 0.00 | 0.00 | 0.00 | 85 | 1016.1 |
| 20260902063527 | 67 | 17 | 0.0 | 3.0 | 0.00 | 0.00 | 0.00 | 84 | 1016.0 |
| 20260902063022 | 67 | 65 | 0.0 | 0.0 | 0.00 | 0.00 | 0.00 | 83 | 1016.0 |
| 20260902062521 | 67 | 65 | 0.0 | 0.0 | 0.00 | 0.00 | 0.00 | 82 | 1015.9 |
| 20260902062021 | 67 | 65 | 0.0 | 0.0 | 0.00 | 0.00 | 0.00 | 82 | 1015.8 |
| 20260902061521 | 67 | 65 | 0.0 | 4.0 | 0.00 | 0.00 | 0.00 | 82 | 1015.8 |
| 20260902061022 | 67 | 348 | 1.0 | 4.0 | 0.00 | 0.00 | 0.00 | 81 | 1015.6 |
| 20260902060527 | 67 | 109 | 2.0 | 4.0 | 0.00 | 0.00 | 0.00 | 80 | 1015.7 |
| 20260902060022 | 67 | 17 | 1.0 | 4.0 | 0.00 | 0.00 | 0.00 | 77 | 1015.6 |
| 20260902055525 | 69 | 329 | 0.0 | 4.0 | 0.00 | 0.00 | 0.00 | 78 | 1015.6 |
| 20260902055020 | 70 | 44 | 2.0 | 3.0 | 0.00 | 0.00 | 0.00 | 78 | 1015.5 |
| 20260902054519 | 69 | 311 | 0.0 | 6.0 | 0.00 | 0.00 | 0.00 | 74 | 1015.5 |
| 20260902054019 | 69 | 165 | 4.0 | 6.0 | 0.00 | 0.00 | 0.00 | 72 | 1015.4 |
| 20260902053519 | 68 | 129 | 2.0 | 11.0 | 0.00 | 0.00 | 0.00 | 74 | 1015.4 |
| 20260902053019 | 67 | 252 | 6.0 | 11.0 | 0.00 | 0.00 | 0.00 | 82 | 1015.4 |
| 20260902052521 | 64 | 71 | 4.0 | 7.0 | 0.00 | 0.00 | 0.00 | 90 | 1015.4 |
| 20260902052019 | 64 | 74 | 2.0 | 7.0 | 0.00 | 0.00 | 0.00 | 91 | 1015.5 |
| 20260902051517 | 64 | 56 | 3.0 | 6.0 | 0.00 | 0.00 | 0.00 | 93 | 1015.4 |
| 20260902051017 | 64 | 11 | 4.0 | 7.0 | 0.00 | 0.00 | 0.00 | 93 | 1015.3 |
| 20260902050519 | 65 | 105 | 4.0 | 7.0 | 0.00 | 0.00 | 0.00 | 93 | 1015.3 |
| 20260902050016 | 65 | 30 | 2.0 | 5.0 | 0.00 | 0.00 | 0.00 | 94 | 1015.4 |
| 20260902045520 | 65 | 42 | 3.0 | 5.0 | 0.00 | 0.00 | 0.00 | 93 | 1015.3 |
| 20260902045015 | 65 | 75 | 1.0 | 6.0 | 0.00 | 0.00 | 0.00 | 94 | 1015.5 |
| 20260902044515 | 65 | 104 | 3.0 | 6.0 | 0.00 | 0.00 | 0.00 | 94 | 1015.4 |
| 20260902044017 | 65 | 5 | 0.0 | 6.0 | 0.00 | 0.00 | 0.00 | 93 | 1015.4 |
| 20260902043514 | 65 | 36 | 0.0 | 6.0 | 0.00 | 0.00 | 0.00 | 93 | 1015.3 |
| 20260902043014 | 65 | 68 | 1.0 | 6.0 | 0.00 | 0.00 | 0.00 | 93 | 1015.3 |
| 20260902042512 | 66 | 360 | 1.0 | 3.0 | 0.00 | 0.00 | 0.00 | 94 | 1015.3 |
| 20260902042012 | 66 | 47 | 0.0 | 2.0 | 0.00 | 0.00 | 0.00 | 93 | 1015.4 |
| 20260902041530 | 66 | 47 | 0.0 | 4.0 | 0.00 | 0.00 | 0.00 | 93 | 1015.4 |
| 20260902041011 | 66 | 38 | 2.0 | 4.0 | 0.00 | 0.00 | 0.00 | 93 | 1015.4 |
| 20260902040511 | 66 | 18 | 0.0 | 4.0 | 0.00 | 0.00 | 0.00 | 93 | 1015.5 |
| 20260902040011 | 66 | 346 | 0.0 | 4.0 | 0.00 | 0.00 | 0.00 | 93 | 1015.5 |
| 20260902035510 | 66 | 360 | 2.0 | 4.0 | 0.00 | 0.00 | 0.00 | 93 | 1015.4 |
| 20260902035010 | 66 | 355 | 1.0 | 4.0 | 0.00 | 0.00 | 0.00 | 93 | 1015.5 |
| 20260902034511 | 66 | 5 | 1.0 | 5.0 | 0.00 | 0.00 | 0.00 | 93 | 1015.5 |
| 20260902034010 | 66 | 59 | 2.0 | 5.0 | 0.00 | 0.00 | 0.00 | 93 | 1015.5 |
| 20260902033509 | 66 | 51 | 2.0 | 5.0 | 0.00 | 0.00 | 0.00 | 93 | 1015.4 |
| 20260902033009 | 66 | 61 | 2.0 | 4.0 | 0.00 | 0.00 | 0.00 | 92 | 1015.4 |
| 20260902032509 | 66 | 342 | 1.0 | 4.0 | 0.00 | 0.00 | 0.00 | 92 | 1015.5 |
| 20260902032008 | 66 | 32 | 0.0 | 4.0 | 0.00 | 0.00 | 0.00 | 92 | 1015.5 |
| 20260902031508 | 66 | 116 | 2.0 | 6.0 | 0.00 | 0.00 | 0.00 | 92 | 1015.5 |
| 20260902031008 | 66 | 65 | 3.0 | 6.0 | 0.00 | 0.00 | 0.00 | 91 | 1015.4 |
| 20260902030508 | 66 | 66 | 2.0 | 4.0 | 0.00 | 0.00 | 0.00 | 91 | 1015.5 |
| 20260902030006 | 66 | 5 | 2.0 | 6.0 | 0.00 | 0.00 | 0.00 | 91 | 1015.5 |
| 20260902025506 | 66 | 82 | 2.0 | 4.0 | 0.00 | 0.00 | 0.00 | 90 | 1015.6 |
| 20260902025006 | 66 | 40 | 1.0 | 4.0 | 0.00 | 0.00 | 0.00 | 90 | 1015.6 |
| 20260902024505 | 66 | 62 | 2.0 | 5.0 | 0.00 | 0.00 | 0.00 | 90 | 1015.7 |
| 20260902024004 | 66 | 64 | 2.0 | 5.0 | 0.00 | 0.00 | 0.00 | 89 | 1015.8 |
| 20260902023503 | 67 | 47 | 1.0 | 5.0 | 0.00 | 0.00 | 0.00 | 89 | 1015.9 |
| 20260902023003 | 67 | 24 | 2.0 | 5.0 | 0.00 | 0.00 | 0.00 | 88 | 1015.9 |
| 20260902022503 | 67 | 42 | 2.0 | 5.0 | 0.00 | 0.00 | 0.00 | 87 | 1015.9 |
| 20260902022002 | 67 | 50 | 3.0 | 5.0 | 0.00 | 0.00 | 0.00 | 87 | 1015.8 |
| 20260902021505 | 67 | 29 | 2.0 | 4.0 | 0.00 | 0.00 | 0.00 | 86 | 1016.0 |
| 20260902021002 | 67 | 100 | 2.0 | 4.0 | 0.00 | 0.00 | 0.00 | 84 | 1016.1 |
| 20260902020501 | 66 | 49 | 0.0 | 5.0 | 0.00 | 0.00 | 0.00 | 82 | 1016.0 |
| 20260902015604 | 67 | 9 | 2.0 | 4.0 | 0.00 | 0.00 | 0.00 | 83 | 1016.2 |
| 20260902015102 | 66 | 23 | 2.0 | 5.0 | 0.00 | 0.00 | 0.00 | 81 | 1016.2 |
| 20260902014608 | 65 | 59 | 2.0 | 5.0 | 0.00 | 0.00 | 0.00 | 81 | 1016.3 |
| 20260902014058 | 67 | 57 | 2.0 | 5.0 | 0.00 | 0.00 | 0.00 | 86 | 1016.4 |
| 20260902013557 | 66 | 5 | 3.0 | 5.0 | 0.00 | 0.00 | 0.00 | 84 | 1016.5 |
| 20260902013056 | 67 | 71 | 2.0 | 5.0 | 0.00 | 0.00 | 0.00 | 85 | 1016.5 |
| 20260902012554 | 67 | 60 | 2.0 | 4.0 | 0.00 | 0.00 | 0.00 | 84 | 1016.6 |
| 20260902012053 | 67 | 60 | 2.0 | 4.0 | 0.00 | 0.00 | 0.00 | 82 | 1016.7 |
| 20260902011554 | 68 | 60 | 1.0 | 4.0 | 0.00 | 0.00 | 0.00 | 81 | 1016.7 |
| 20260902011055 | 68 | 60 | 1.0 | 3.0 | 0.00 | 0.00 | 0.00 | 80 | 1016.7 |
| 20260902010550 | 68 | 60 | 1.0 | 3.0 | 0.00 | 0.00 | 0.00 | 79 | 1016.8 |
| 20260902010051 | 68 | 60 | 0.0 | 3.0 | 0.00 | 0.00 | 0.00 | 77 | 1016.8 |
| 20260902005550 | 68 | 60 | 1.0 | 4.0 | 0.00 | 0.00 | 0.00 | 75 | 1016.8 |
| 20260902005049 | 68 | 60 | 0.0 | 5.0 | 0.00 | 0.00 | 0.00 | 74 | 1016.8 |
| 20260902004549 | 69 | 346 | 2.0 | 5.0 | 0.00 | 0.00 | 0.00 | 71 | 1016.7 |
| 20260902004051 | 69 | 56 | 1.0 | 3.0 | 0.00 | 0.00 | 0.00 | 73 | 1016.8 |
| 20260902003548 | 69 | 56 | 0.0 | 5.0 | 0.00 | 0.00 | 0.00 | 65 | 1016.8 |
| 20260902003047 | 69 | 56 | 3.0 | 5.0 | 0.00 | 0.00 | 0.00 | 69 | 1016.8 |
| 20260902002546 | 70 | 5 | 2.0 | 4.0 | 0.00 | 0.00 | 0.00 | 69 | 1016.8 |
| 20260902002045 | 70 | 132 | 0.0 | 3.0 | 0.00 | 0.00 | 0.00 | 64 | 1016.9 |
| 20260902001544 | 69 | 81 | 1.0 | 3.0 | 0.00 | 0.00 | 0.00 | 67 | 1016.9 |
| 20260902001042 | 68 | 81 | 2.0 | 4.0 | 0.00 | 0.00 | 0.00 | 73 | 1017.0 |
| 20260902000541 | 69 | 327 | 1.0 | 4.0 | 0.00 | 0.00 | 0.00 | 76 | 1016.9 |
| 20260902000049 | 69 | 71 | 1.0 | 4.0 | 0.00 | 0.00 | 0.00 | 77 | 1017.0 |
| 20260901235544 | 69 | 76 | 1.0 | 7.0 | 0.00 | 0.00 | 0.00 | 78 | 1017.1 |
| 20260901235040 | 69 | 101 | 0.0 | 7.0 | 0.00 | 0.00 | 0.00 | 78 | 1017.1 |
| 20260901234544 | 69 | 93 | 1.0 | 5.0 | 0.00 | 0.00 | 0.00 | 78 | 1017.1 |
| 20260901234043 | 69 | 25 | 2.0 | 6.0 | 0.00 | 0.00 | 0.00 | 79 | 1017.2 |
| 20260901233543 | 69 | 117 | 2.0 | 6.0 | 0.00 | 0.00 | 0.00 | 78 | 1017.2 |
| 20260901233042 | 69 | 317 | 0.0 | 3.0 | 0.00 | 0.00 | 0.00 | 78 | 1017.2 |
| 20260901232539 | 69 | 62 | 0.0 | 4.0 | 0.00 | 0.00 | 0.00 | 78 | 1017.2 |
| 20260901232036 | 69 | 67 | 2.0 | 5.0 | 0.00 | 0.00 | 0.00 | 78 | 1017.4 |
| 20260901231542 | 69 | 157 | 4.0 | 5.0 | 0.00 | 0.00 | 0.00 | 78 | 1017.4 |
| 20260901231035 | 69 | 346 | 2.0 | 4.0 | 0.00 | 0.00 | 0.00 | 78 | 1017.3 |
| 20260901230535 | 69 | 14 | 1.0 | 4.0 | 0.00 | 0.00 | 0.00 | 77 | 1017.3 |
| 20260901230045 | 69 | 197 | 1.0 | 4.0 | 0.00 | 0.00 | 0.00 | 77 | 1017.4 |
| 20260901225537 | 69 | 96 | 1.0 | 5.0 | 0.00 | 0.00 | 0.00 | 76 | 1017.4 |
| 20260901225033 | 70 | 5 | 3.0 | 5.0 | 0.00 | 0.00 | 0.00 | 76 | 1017.3 |
| 20260901224533 | 70 | 46 | 0.0 | 3.0 | 0.00 | 0.00 | 0.00 | 74 | 1017.5 |
| 20260901224033 | 70 | 46 | 0.0 | 3.0 | 0.00 | 0.00 | 0.00 | 74 | 1017.6 |
| 20260901223533 | 70 | 46 | 0.0 | 3.0 | 0.00 | 0.00 | 0.00 | 72 | 1017.6 |
| 20260901223038 | 70 | 46 | 0.0 | 4.0 | 0.00 | 0.00 | 0.00 | 69 | 1017.6 |
| 20260901222533 | 71 | 46 | 0.0 | 4.0 | 0.00 | 0.00 | 0.00 | 70 | 1017.6 |
| 20260901222031 | 71 | 290 | 1.0 | 4.0 | 0.00 | 0.00 | 0.00 | 67 | 1017.7 |
| 20260901221532 | 71 | 125 | 2.0 | 4.0 | 0.00 | 0.00 | 0.00 | 68 | 1017.7 |
| 20260901221032 | 71 | 5 | 1.0 | 4.0 | 0.00 | 0.00 | 0.00 | 70 | 1017.6 |
| 20260901220531 | 71 | 321 | 1.0 | 5.0 | 0.00 | 0.00 | 0.00 | 71 | 1017.5 |
| 20260901220042 | 71 | 132 | 4.0 | 6.0 | 0.00 | 0.00 | 0.00 | 72 | 1017.6 |
| 20260901215535 | 71 | 71 | 1.0 | 3.0 | 0.00 | 0.00 | 0.00 | 73 | 1017.5 |
| 20260901215031 | 71 | 71 | 0.0 | 3.0 | 0.00 | 0.00 | 0.00 | 73 | 1017.6 |
| 20260901214536 | 71 | 71 | 1.0 | 4.0 | 0.00 | 0.00 | 0.00 | 74 | 1017.6 |
| 20260901214035 | 71 | 71 | 1.0 | 5.0 | 0.00 | 0.00 | 0.00 | 76 | 1017.6 |
| 20260901213530 | 70 | 71 | 3.0 | 4.0 | 0.00 | 0.00 | 0.00 | 78 | 1017.6 |
| 20260901213030 | 70 | 71 | 2.0 | 4.0 | 0.00 | 0.00 | 0.00 | 80 | 1017.6 |
| 20260901212529 | 69 | 71 | 0.0 | 4.0 | 0.00 | 0.00 | 0.00 | 81 | 1017.5 |
| 20260901212029 | 69 | 42 | 1.0 | 4.0 | 0.00 | 0.00 | 0.00 | 83 | 1017.4 |
| 20260901211530 | 69 | 103 | 2.0 | 3.0 | 0.00 | 0.00 | 0.00 | 84 | 1017.4 |
| 20260901211029 | 69 | 103 | 2.0 | 3.0 | 0.00 | 0.00 | 0.00 | 85 | 1017.4 |
| 20260901210528 | 69 | 120 | 2.0 | 4.0 | 0.00 | 0.00 | 0.00 | 85 | 1017.3 |
| 20260901210035 | 69 | 298 | 0.0 | 1.0 | 0.00 | 0.00 | 0.00 | 85 | 1017.2 |
| 20260901205529 | 69 | 298 | 0.0 | 1.0 | 0.00 | 0.00 | 0.00 | 85 | 1017.3 |
| 20260901205028 | 69 | 298 | 0.0 | 2.0 | 0.00 | 0.00 | 0.00 | 85 | 1017.2 |
| 20260901204530 | 69 | 298 | 0.0 | 2.0 | 0.00 | 0.00 | 0.00 | 85 | 1017.1 |
| 20260901204028 | 69 | 298 | 0.0 | 2.0 | 0.00 | 0.00 | 0.00 | 84 | 1017.0 |
| 20260901203528 | 69 | 298 | 0.0 | 2.0 | 0.00 | 0.00 | 0.00 | 84 | 1017.1 |
| 20260901203042 | 70 | 298 | 0.0 | 2.0 | 0.00 | 0.00 | 0.00 | 84 | 1017.0 |
| 20260901202528 | 70 | 298 | 0.0 | 0.0 | 0.00 | 0.00 | 0.00 | 84 | 1017.1 |
| 20260901202027 | 70 | 298 | 0.0 | 3.0 | 0.00 | 0.00 | 0.00 | 83 | 1017.0 |
| 20260901201527 | 70 | 298 | 0.0 | 4.0 | 0.00 | 0.00 | 0.00 | 83 | 1017.0 |
| 20260901201028 | 70 | 298 | 2.0 | 4.0 | 0.00 | 0.00 | 0.00 | 82 | 1017.0 |
| 20260901200526 | 70 | 298 | 0.0 | 3.0 | 0.00 | 0.00 | 0.00 | 82 | 1016.9 |
| 20260901200040 | 70 | 298 | 1.0 | 4.0 | 0.00 | 0.00 | 0.00 | 81 | 1017.0 |
| 20260901195528 | 71 | 298 | 1.0 | 4.0 | 0.00 | 0.00 | 0.00 | 81 | 1016.9 |
| 20260901195027 | 71 | 298 | 2.0 | 4.0 | 0.00 | 0.00 | 0.00 | 80 | 1016.8 |
| 20260901194528 | 72 | 298 | 2.0 | 4.0 | 0.00 | 0.00 | 0.00 | 79 | 1016.7 |
| 20260901194026 | 72 | 315 | 0.0 | 5.0 | 0.00 | 0.00 | 0.00 | 79 | 1016.7 |
| 20260901193526 | 72 | 295 | 2.0 | 5.0 | 0.00 | 0.00 | 0.00 | 78 | 1016.6 |
| 20260901193027 | 73 | 272 | 2.0 | 4.0 | 0.00 | 0.00 | 0.00 | 77 | 1016.7 |
| 20260901192526 | 73 | 347 | 1.0 | 6.0 | 0.00 | 0.00 | 0.00 | 76 | 1016.7 |
| 20260901192028 | 74 | 347 | 1.0 | 6.0 | 0.00 | 0.00 | 0.00 | 76 | 1016.6 |
| 20260901191525 | 74 | 263 | 2.0 | 4.0 | 0.00 | 0.00 | 0.00 | 75 | 1016.6 |
| 20260901191024 | 74 | 317 | 2.0 | 4.0 | 0.00 | 0.00 | 0.00 | 75 | 1016.6 |
| 20260901190524 | 75 | 279 | 1.0 | 4.0 | 0.00 | 0.00 | 0.00 | 75 | 1016.5 |
| 20260901190040 | 75 | 355 | 2.0 | 4.0 | 0.00 | 0.00 | 0.00 | 75 | 1016.6 |
| 20260901185525 | 75 | 311 | 0.0 | 4.0 | 0.00 | 0.00 | 0.00 | 76 | 1016.4 |
| 20260901185028 | 75 | 336 | 1.0 | 4.0 | 0.00 | 0.00 | 0.00 | 74 | 1016.5 |
| 20260901184524 | 76 | 292 | 1.0 | 4.0 | 0.00 | 0.00 | 0.00 | 75 | 1016.4 |
| 20260901184024 | 75 | 325 | 1.0 | 4.0 | 0.00 | 0.00 | 0.00 | 76 | 1016.4 |
| 20260901183523 | 75 | 340 | 2.0 | 8.0 | 0.00 | 0.00 | 0.00 | 75 | 1016.5 |
| 20260901183028 | 76 | 342 | 3.0 | 8.0 | 0.00 | 0.00 | 0.00 | 74 | 1016.4 |
| 20260901182523 | 76 | 336 | 1.0 | 7.0 | 0.00 | 0.00 | 0.00 | 75 | 1016.4 |
| 20260901182023 | 76 | 284 | 3.0 | 8.0 | 0.00 | 0.00 | 0.00 | 74 | 1016.5 |
| 20260901181523 | 76 | 319 | 3.0 | 8.0 | 0.00 | 0.00 | 0.00 | 74 | 1016.4 |
| 20260901181024 | 76 | 284 | 2.0 | 8.0 | 0.00 | 0.00 | 0.00 | 74 | 1016.5 |
| 20260901180524 | 76 | 306 | 5.0 | 8.0 | 0.00 | 0.00 | 0.00 | 74 | 1016.5 |
| 20260901180022 | 76 | 332 | 1.0 | 8.0 | 0.00 | 0.00 | 0.00 | 74 | 1016.4 |
| 20260901175526 | 76 | 349 | 4.0 | 10.0 | 0.00 | 0.00 | 0.00 | 74 | 1016.4 |
| 20260901175021 | 76 | 311 | 4.0 | 10.0 | 0.00 | 0.00 | 0.00 | 72 | 1016.5 |
| 20260901174531 | 76 | 334 | 3.0 | 10.0 | 0.00 | 0.00 | 0.00 | 72 | 1016.5 |
| 20260901174021 | 77 | 291 | 5.0 | 10.0 | 0.00 | 0.00 | 0.00 | 72 | 1016.3 |
| 20260901173521 | 78 | 275 | 2.0 | 11.0 | 0.00 | 0.00 | 0.00 | 69 | 1016.4 |
| 20260901173020 | 78 | 5 | 7.0 | 16.0 | 0.00 | 0.00 | 0.00 | 67 | 1016.4 |
| 20260901172521 | 79 | 341 | 7.0 | 19.0 | 0.00 | 0.00 | 0.00 | 62 | 1016.3 |
| 20260901172020 | 77 | 193 | 4.0 | 16.0 | 0.00 | 0.00 | 0.00 | 62 | 1016.5 |
| 20260901171525 | 77 | 300 | 5.0 | 21.0 | 0.00 | 0.00 | 0.00 | 70 | 1016.6 |
| 20260901171019 | 77 | 13 | 10.0 | 21.0 | 0.00 | 0.00 | 0.00 | 67 | 1016.4 |
| 20260901170519 | 77 | 153 | 7.0 | 10.0 | 0.00 | 0.00 | 0.00 | 66 | 1016.7 |
| 20260901170020 | 78 | 288 | 3.0 | 13.0 | 0.00 | 0.00 | 0.00 | 69 | 1016.7 |
| 20260901165519 | 78 | 280 | 5.0 | 13.0 | 0.00 | 0.00 | 0.00 | 66 | 1016.4 |
| 20260901165023 | 78 | 172 | 5.0 | 29.0 | 0.00 | 0.00 | 0.00 | 64 | 1016.6 |
| 20260901164519 | 79 | 55 | 15.0 | 29.0 | 0.00 | 0.00 | 0.00 | 59 | 1016.1 |
| 20260901164019 | 79 | 283 | 4.0 | 14.0 | 0.00 | 0.00 | 0.00 | 62 | 1016.6 |
| 20260901163518 | 80 | 16 | 7.0 | 18.0 | 0.00 | 0.00 | 0.00 | 61 | 1016.4 |
| 20260901163024 | 79 | 65 | 8.0 | 16.0 | 0.00 | 0.00 | 0.00 | 55 | 1016.6 |
| 20260901162518 | 79 | 316 | 6.0 | 16.0 | 0.00 | 0.00 | 0.00 | 60 | 1016.6 |
| 20260901162019 | 79 | 252 | 4.0 | 27.0 | 0.00 | 0.00 | 0.00 | 64 | 1016.5 |
| 20260901161517 | 80 | 80 | 15.0 | 27.0 | 0.00 | 0.00 | 0.00 | 61 | 1016.6 |
| 20260901161017 | 79 | 116 | 8.0 | 20.0 | 0.00 | 0.00 | 0.00 | 55 | 1016.5 |
| 20260901160519 | 79 | 319 | 4.0 | 18.0 | 0.00 | 0.00 | 0.00 | 66 | 1016.8 |
| 20260901160016 | 78 | 64 | 3.0 | 10.0 | 0.00 | 0.00 | 0.00 | 69 | 1016.7 |
| 20260901155517 | 77 | 117 | 2.0 | 8.0 | 0.00 | 0.00 | 0.00 | 71 | 1017.0 |
| 20260901155016 | 77 | 350 | 3.0 | 12.0 | 0.00 | 0.00 | 0.00 | 71 | 1017.0 |
| 20260901154523 | 77 | 321 | 4.0 | 12.0 | 0.00 | 0.00 | 0.00 | 71 | 1017.0 |
| 20260901154015 | 77 | 311 | 5.0 | 11.0 | 0.00 | 0.00 | 0.00 | 70 | 1017.0 |
| 20260901153515 | 77 | 325 | 4.0 | 13.0 | 0.00 | 0.00 | 0.00 | 70 | 1017.1 |
| 20260901153027 | 77 | 36 | 5.0 | 13.0 | 0.00 | 0.00 | 0.00 | 67 | 1017.1 |
| 20260901152514 | 77 | 5 | 4.0 | 15.0 | 0.00 | 0.00 | 0.00 | 67 | 1017.2 |
| 20260901152014 | 78 | 274 | 7.0 | 16.0 | 0.00 | 0.00 | 0.00 | 67 | 1017.2 |
| 20260901151517 | 79 | 319 | 5.0 | 16.0 | 0.00 | 0.00 | 0.00 | 65 | 1017.2 |
| 20260901151015 | 79 | 360 | 5.0 | 17.0 | 0.00 | 0.00 | 0.00 | 61 | 1017.0 |
| 20260901150513 | 80 | 355 | 4.0 | 30.0 | 0.00 | 0.00 | 0.00 | 61 | 1017.3 |
| 20260901150027 | 81 | 355 | 15.0 | 30.0 | 0.00 | 0.00 | 0.00 | 55 | 1017.1 |
| 20260901145516 | 80 | 131 | 4.0 | 19.0 | 0.00 | 0.00 | 0.00 | 60 | 1017.5 |
| 20260901145012 | 81 | 26 | 9.0 | 19.0 | 0.00 | 0.00 | 0.00 | 58 | 1017.3 |
| 20260901144512 | 81 | 100 | 7.0 | 20.0 | 0.00 | 0.00 | 0.00 | 50 | 1017.5 |
| 20260901144013 | 82 | 68 | 9.0 | 21.0 | 0.00 | 0.00 | 0.00 | 49 | 1017.4 |
| 20260901143511 | 82 | 83 | 12.0 | 23.0 | 0.00 | 0.00 | 0.00 | 47 | 1017.4 |
| 20260901143011 | 81 | 121 | 11.0 | 26.0 | 0.00 | 0.00 | 0.00 | 48 | 1017.4 |
| 20260901142510 | 81 | 94 | 13.0 | 26.0 | 0.00 | 0.00 | 0.00 | 49 | 1017.6 |
| 20260901142010 | 81 | 117 | 16.0 | 26.0 | 0.00 | 0.00 | 0.00 | 49 | 1017.4 |
| 20260901141510 | 80 | 121 | 7.0 | 30.0 | 0.00 | 0.00 | 0.00 | 49 | 1017.7 |
| 20260901141011 | 80 | 98 | 15.0 | 30.0 | 0.00 | 0.00 | 0.00 | 56 | 1017.7 |
| 20260901140509 | 81 | 101 | 7.0 | 25.0 | 0.00 | 0.00 | 0.00 | 49 | 1017.7 |
| 20260901140016 | 81 | 28 | 8.0 | 25.0 | 0.00 | 0.00 | 0.00 | 56 | 1017.9 |
| 20260901135509 | 82 | 126 | 9.0 | 24.0 | 0.00 | 0.00 | 0.00 | 49 | 1017.8 |
| 20260901135012 | 81 | 86 | 13.0 | 25.0 | 0.00 | 0.00 | 0.00 | 49 | 1017.8 |
| 20260901134511 | 81 | 248 | 10.0 | 26.0 | 0.00 | 0.00 | 0.00 | 52 | 1017.9 |
| 20260901134007 | 80 | 94 | 12.0 | 30.0 | 0.00 | 0.00 | 0.00 | 49 | 1017.9 |
| 20260901133508 | 81 | 134 | 15.0 | 27.0 | 0.00 | 0.00 | 0.00 | 49 | 1017.7 |
| 20260901133011 | 80 | 117 | 15.0 | 26.0 | 0.00 | 0.00 | 0.00 | 48 | 1017.8 |
| 20260901132506 | 80 | 99 | 16.0 | 33.0 | 0.00 | 0.00 | 0.00 | 49 | 1017.7 |
| 20260901132007 | 80 | 119 | 17.0 | 33.0 | 0.00 | 0.00 | 0.00 | 47 | 1017.9 |
| 20260901131507 | 80 | 121 | 15.0 | 29.0 | 0.00 | 0.00 | 0.00 | 49 | 1017.7 |
| 20260901131006 | 80 | 144 | 14.0 | 29.0 | 0.00 | 0.00 | 0.00 | 49 | 1017.9 |
| 20260901130505 | 80 | 104 | 14.0 | 29.0 | 0.00 | 0.00 | 0.00 | 49 | 1018.0 |
| 20260901130005 | 80 | 80 | 18.0 | 32.0 | 0.00 | 0.00 | 0.00 | 48 | 1017.9 |
| 20260901125504 | 80 | 134 | 17.0 | 28.0 | 0.00 | 0.00 | 0.00 | 47 | 1018.0 |
| 20260901125004 | 80 | 130 | 13.0 | 33.0 | 0.00 | 0.00 | 0.00 | 49 | 1018.0 |
| 20260901124503 | 80 | 128 | 21.0 | 33.0 | 0.00 | 0.00 | 0.00 | 47 | 1017.9 |
| 20260901124001 | 80 | 84 | 19.0 | 30.0 | 0.00 | 0.00 | 0.00 | 48 | 1018.1 |
| 20260901123502 | 80 | 90 | 18.0 | 28.0 | 0.00 | 0.00 | 0.00 | 47 | 1018.0 |
| 20260901123100 | 80 | 120 | 14.0 | 25.0 | 0.00 | 0.00 | 0.00 | 47 | 1018.3 |
| 20260901122559 | 80 | 109 | 12.0 | 31.0 | 0.00 | 0.00 | 0.00 | 49 | 1018.2 |
| 20260901122102 | 80 | 71 | 17.0 | 32.0 | 0.00 | 0.00 | 0.00 | 48 | 1018.3 |
| 20260901121559 | 81 | 96 | 12.0 | 27.0 | 0.00 | 0.00 | 0.00 | 48 | 1018.2 |
| 20260901121057 | 81 | 78 | 15.0 | 27.0 | 0.00 | 0.00 | 0.00 | 47 | 1018.4 |
| 20260901120556 | 81 | 78 | 10.0 | 25.0 | 0.00 | 0.00 | 0.00 | 48 | 1018.6 |
| 20260901120119 | 80 | 100 | 14.0 | 25.0 | 0.00 | 0.00 | 0.00 | 48 | 1018.4 |
| 20260901115557 | 80 | 112 | 14.0 | 29.0 | 0.00 | 0.00 | 0.00 | 49 | 1018.6 |
| 20260901115052 | 80 | 120 | 16.0 | 29.0 | 0.00 | 0.00 | 0.00 | 48 | 1018.4 |
| 20260901114551 | 80 | 161 | 13.0 | 28.0 | 0.00 | 0.00 | 0.00 | 46 | 1018.5 |
| 20260901114049 | 80 | 104 | 17.0 | 28.0 | 0.00 | 0.00 | 0.00 | 47 | 1018.6 |
| 20260901113548 | 80 | 126 | 17.0 | 28.0 | 0.00 | 0.00 | 0.00 | 46 | 1018.7 |
| 20260901113055 | 80 | 132 | 13.0 | 24.0 | 0.00 | 0.00 | 0.00 | 48 | 1018.8 |
| 20260901112548 | 79 | 138 | 17.0 | 26.0 | 0.00 | 0.00 | 0.00 | 48 | 1018.7 |
| 20260901112044 | 79 | 112 | 14.0 | 26.0 | 0.00 | 0.00 | 0.00 | 49 | 1018.9 |
| 20260901111544 | 79 | 110 | 15.0 | 25.0 | 0.00 | 0.00 | 0.00 | 50 | 1018.8 |